Location: Newark
(46.9000°N, 28.3500°E)
Time: 10:17:55
(UTC+00:00)

Explorer 7 - Pass Details

Date: 28 August 2019
Orbit: 485 x 680 km, 50.3° (Epoch: 16 September)

Event Time Altitude Azimuth Distance (km) Brightness Sun altitude
Rises 10:00:12 0° 290° (WNW) 2,969 10.4 52.8°
Reaches altitude 10° 10:02:36 10° 291° (WNW) 2,031 9.7 52.8°
Maximum altitude 10:07:17 82° 19° (NNE) 623 7.9 52.8°
Drops below altitude 10° 10:11:40 10° 108° (ESE) 1,903 9.8 52.8°
Sets 10:13:51 0° 109° (ESE) 2,766 10.5 52.8°
